Regional Weather Roundup
Issued by NWS

Home | Current Version | Previous Version | Text Only | Print | Product List | Glossary Off
Versions: 1 2 3 4 5 6 7 8 9 10 11 12 13 14 15 16 17 18 19 20 21 22 23 24 25 26 27 28 29 30 31 32 33 34 35 36 37 38 39 40 41 42 43 44 45 46 47 48 49 50

000
ASUS43 KMKX 231221
RWRWI

WISCONSIN REGIONAL WEATHER ROUNDUP
NATIONAL WEATHER SERVICE MILWAUKEE/SULLIVAN WI
700 AM CDT SAT SEP 23 2017

NOTE: "FAIR" INDICATES FEW OR NO CLOUDS BELOW 12,000 FEET WITH NO
SIGNIFICANT WEATHER AND/OR OBSTRUCTIONS TO VISIBILITY.

WIZ001-002-006>008-014>016-023>028-231300-
NORTHWEST WISCONSIN

CITY           SKY/WX    TMP DP  RH WIND       PRES   REMARKS
SUPERIOR ARPT  MOCLDY    63  63 100 CALM      29.87S
6HR MIN TEMP:  60; 6HR MAX TEMP:  64;

ASHLAND        CLOUDY    74  67  78 S10       29.90S
6HR MIN TEMP:  74; 6HR MAX TEMP:  78;

HAYWARD        PTCLDY    73  66  78 S8        29.95R
6HR MIN TEMP:  72; 6HR MAX TEMP:  77;

SIREN          PTCLDY    72  66  79 S7        29.92R
6HR MIN TEMP:  72; 6HR MAX TEMP:  79;

CUMBERLAND     CLEAR     68  63  83 S5        29.96S
RICE LAKE      CLEAR     69  65  88 CALM      29.98R
6HR MIN TEMP:  68; 6HR MAX TEMP:  75;

CHETEK         CLEAR     69  66  91 CALM      29.97R
6HR MIN TEMP:  68; 6HR MAX TEMP:  75;

LADYSMITH      PTCLDY    71  66  82 S6        30.00S
6HR MIN TEMP:  71; 6HR MAX TEMP:  74;

EAU CLAIRE     CLEAR     72  66  81 S8        29.96F
6HR MIN TEMP:  69; 6HR MAX TEMP:  76;

MENOMONIE      CLEAR     68  65  91 E3        29.97R
6HR MIN TEMP:  68; 6HR MAX TEMP:  79;

NEW RICHMOND   CLEAR     71  65  81 S7        29.95R
6HR MIN TEMP:  71; 6HR MAX TEMP:  77;

OSCEOLA        CLEAR     72  66  81 S9        29.95S
6HR MIN TEMP:  71; 6HR MAX TEMP:  79;

$$

WIZ003>005-009-010-017-018-231300-
NORTH CENTRAL WISCONSIN

CITY           SKY/WX    TMP DP  RH WIND       PRES   REMARKS
MANITOWISH WTR NOT AVBL
ARBOR VITAE    PTCLDY    69  66  90 S7        30.01F
6HR MIN TEMP:  69; 6HR MAX TEMP:  72;

WOODRUFF       PTCLDY    69  66  90 S7        30.01F
6HR MIN TEMP:  69; 6HR MAX TEMP:  72;

RHINELANDER    CLEAR     70  65  84 SW9       30.04S
6HR MIN TEMP:  69; 6HR MAX TEMP:  74;

EAGLE RIVER    CLOUDY    68  65  93 S5        30.02F
6HR MIN TEMP:  60; 6HR MAX TEMP:  69;

LAND O LAKES   PTCLDY    67  65  91 SW5       30.02F
6HR MIN TEMP:  63; 6HR MAX TEMP:  69;

PHILLIPS       CLEAR     67  67  97 S3        30.00S
6HR MIN TEMP:  67; 6HR MAX TEMP:  74;

TOMAHAWK       CLEAR     64  62  94 CALM      30.04S
6HR MIN TEMP:  63; 6HR MAX TEMP:  70;

MEDFORD        CLEAR     64  62  95 S8        30.03S
6HR MIN TEMP:  63; 6HR MAX TEMP:  67;

MERRILL        CLEAR     68  65  90 S3        30.04F
6HR MIN TEMP:  68; 6HR MAX TEMP:  75;

$$

WIZ029-030-035-036-043>047-231300-
CENTRAL WISCONSIN

CITY           SKY/WX    TMP DP  RH WIND       PRES   REMARKS
WAUSAU         CLEAR     67  65  93 S6        30.03S
6HR MIN TEMP:  65; 6HR MAX TEMP:  75;

MOSINEE        PTCLDY    63  63 100 SE5       30.06R
MARSHFIELD     CLEAR     65  61  87 S5        30.04S
6HR MIN TEMP:  64; 6HR MAX TEMP:  71;

STEVENS POINT  CLEAR     65  64  95 CALM      30.06S
6HR MIN TEMP:  65; 6HR MAX TEMP:  73;

WAUPACA        CLEAR     64  64  98 CALM      30.05S FOG
6HR MIN TEMP:  64; 6HR MAX TEMP:  70;

WAUTOMA        CLEAR     60  59  96 CALM      30.06R
6HR MIN TEMP:  60; 6HR MAX TEMP:  72;

WISC RAPIDS    CLEAR     68  64  87 CALM      30.06R
6HR MIN TEMP:  67; 6HR MAX TEMP:  76;

CAMP DOUGLAS   CLEAR     65  64  99 S8        30.04R
6HR MIN TEMP:  61; 6HR MAX TEMP:  75;

$$

WIZ011>013-019>022-031-037>040-048>050-231300-
NORTHEAST WISCONSIN

CITY           SKY/WX    TMP DP  RH WIND       PRES   REMARKS
ANTIGO         CLEAR     66  64  92 SW7       30.06S
6HR MIN TEMP:  61; 6HR MAX TEMP:  68;

SHAWANO        PTCLDY    66  64  91 CALM      30.04S FOG
6HR MIN TEMP:  66; 6HR MAX TEMP:  73;

OCONTO         MOCLDY    61  60  99 CALM      30.03R VSB 1/2
6HR MIN TEMP:  60; 6HR MAX TEMP:  70;

STURGEON BAY   CLEAR     71  64  78 SW8       30.05R
6HR MIN TEMP:  70; 6HR MAX TEMP:  74;

GREEN BAY      CLEAR     67  66  97 CALM      30.04R
6HR MIN TEMP:  65; 6HR MAX TEMP:  72;

MANITOWOC      CLEAR     65  63  93 SE3       30.06R FOG
6HR MIN TEMP:  64; 6HR MAX TEMP:  75;

APPLETON       PTCLDY    68  61  77 SW5       30.04R
CLINTONVILLE   CLEAR     64  63  94 SW3       30.04S
OSHKOSH        CLEAR     66  64  93 S7        30.05R
6HR MIN TEMP:  66; 6HR MAX TEMP:  73;

$$

WIZ032>034-041-042-053>061-231300-
SOUTHWEST WISCONSIN

CITY           SKY/WX    TMP DP  RH WIND       PRES   REMARKS
LA CROSSE      CLEAR     72  66  81 SE6       30.00R
6HR MIN TEMP:  71; 6HR MAX TEMP:  80;

SPARTA         CLEAR     65  63  93 CALM      30.04R
6HR MIN TEMP:  65; 6HR MAX TEMP:  78;

VIROQUA        CLEAR     69  65  88 CALM      30.05R
6HR MIN TEMP:  69; 6HR MAX TEMP:  74;

BOSCOBEL       PTCLDY    64  62  93 CALM      30.04R FOG
6HR MIN TEMP:  64; 6HR MAX TEMP:  75;

PRAIRIE DU CHI CLEAR     67  62  82 SE5       30.03R
6HR MIN TEMP:  67; 6HR MAX TEMP:  77;

PLATTEVILLE    CLEAR     68  66  93 SE7       30.06R
6HR MIN TEMP:  68; 6HR MAX TEMP:  73;

$$

WIZ056-057-062-063-064-067-068-231300-
SOUTH CENTRAL WISCONSIN

CITY           SKY/WX    TMP DP  RH WIND       PRES   REMARKS
REEDSBURG      CLEAR     67  65  91 CALM      30.05R
6HR MIN TEMP:  67; 6HR MAX TEMP:  74;

BARABOO/DELLS  CLEAR     67  61  80 CALM      30.06R
6HR MIN TEMP:  65; 6HR MAX TEMP:  74;

LONE ROCK      CLEAR     64  62  93 CALM      30.05R FOG
6HR MIN TEMP:  62; 6HR MAX TEMP:  68;

MINERAL POINT  CLEAR     68  66  94 SE3       30.07R
MADISON        PTCLDY    66  62  87 CALM      30.06R
6HR MIN TEMP:  65; 6HR MAX TEMP:  74;

MIDDLETON      CLEAR     65  64  97 CALM      30.07R
6HR MIN TEMP:  65; 6HR MAX TEMP:  74;

WATERTOWN      CLEAR     64  64 100 CALM      30.07R
6HR MIN TEMP:  63; 6HR MAX TEMP:  70;

MONROE         CLEAR     68  63  83 S7        30.07R
JANESVILLE     CLEAR     68  66  94 CALM      30.07R
$$

WIZ051-052-058>065-066-070>072-231300-
SOUTHEAST WISCONSIN

CITY           SKY/WX    TMP DP  RH WIND       PRES   REMARKS
MILWAUKEE      PTCLDY    75  65  70 SW6       30.06R
6HR MIN TEMP:  73; 6HR MAX TEMP:  78;

WAUKESHA       CLEAR     72  63  73 SW5       30.09R
MILWAUKEE/TIMM CLEAR     66  61  82 W3        30.08R
RACINE         CLEAR     75  66  73 SW6       30.09R
6HR MIN TEMP:  72; 6HR MAX TEMP:  77;

BURLINGTON     CLEAR     62  62 100 CALM      30.09R FOG
6HR MIN TEMP:  61; 6HR MAX TEMP:  65;

KENOSHA        CLEAR     69  64  84 CALM      30.08R
6HR MIN TEMP:  66; 6HR MAX TEMP:  74;

FOND DU LAC    CLEAR     69  63  81 S6        30.06R
6HR MIN TEMP:  67; 6HR MAX TEMP:  73;

SHEBOYGAN      CLEAR     64  64 100 CALM      30.06R FOG
6HR MIN TEMP:  63; 6HR MAX TEMP:  69;

WEST BEND        N/A     64  63  94 CALM      30.08R
JUNEAU         CLEAR     66  63  89 SE5       30.08R
6HR MIN TEMP:  65; 6HR MAX TEMP:  69;

$$

LSZ147-162-231300-
LAKE SUPERIOR

STATION/POSITION TIME  TEMP    WIND        PRES    WAVE
                       AIR SEA DIR/SP/G            HT/PER
                 (UTC) (F)     (DEG/KT/KT) (MB)    (FT/S)
W MID LAKE BUOY  1150   63 54  230/ 10/ 12 1011.6R   2/ 4
DEVILS ISLAND    1200   72     190/  6/  7 1011.7R
SAXON HARBOR     1140   78     190/ 10/ 14 1011.9R
$$

LMZ867-665-643>646-231300-
LAKE MICHIGAN

STATION/POSITION TIME  TEMP    WIND        PRES    WAVE
                       AIR SEA DIR/SP/G            HT/PER
                 (UTC)


USA.gov is the U.S. government's official web portal to all federal, state and local government web resources and services.